Satellite: AO-40 Catalog number: 26609 Epoch time: 02075.33480324 Element set: 204 Inclination: 7.2763 deg RA of node: 123.8713 deg Eccentricity: 0.7934100 Arg of perigee: 30.5434 deg Mean anomaly: 358.0915 deg Mean motion: 1.25597152 rev/day Decay rate: -2.65000e-06 rev/day^2 Epoch rev: 632 Checksum: 270